This is the latest recevied weather packets stored in our database for station/object SV9TNF-57. If no packets are shown the sender has not sent any weather packets the latest 10 day(s).
| Time | Temp. | Humidity | Pressure | Rain* | Wind** | Luminosity | Snow |
|---|---|---|---|---|---|---|---|
| 1788640072 | 26.11° C | 47% | 997.9 hPa | 0 mm | 0.89 m/s, 293° | - | - |
| 1788639772 | 26.11° C | 47% | 997.9 hPa | 0 mm | 0 m/s | - | - |
| 1788639472 | 26.67° C | 45% | 997.8 hPa | 0 mm | 0 m/s | - | - |
| 1788639172 | 26.67° C | 45% | 997.9 hPa | 0 mm | 0.45 m/s, 318° | - | - |
| 1788638872 | 26.67° C | 44% | 997.6 hPa | 0 mm | 2.68 m/s, 305° | - | - |
| 1788638572 | 26.67° C | 44% | 997.8 hPa | 0 mm | 2.24 m/s, 307° | - | - |
| 1788638271 | 26.67° C | 45% | 997.9 hPa | 0 mm | 2.24 m/s, 320° | - | - |
| 1788637971 | 26.11° C | 45% | 997.7 hPa | 0 mm | 2.24 m/s, 323° | - | - |
| 1788637672 | 26.11° C | 47% | 998.1 hPa | 0 mm | 2.68 m/s, 307° | - | - |
| 1788637371 | 26.11° C | 49% | 997.9 hPa | 0 mm | 0 m/s | - | - |
| 1788637071 | 25.56° C | 51% | 997.8 hPa | 0 mm | 1.34 m/s, 268° | - | - |
| 1788636771 | 25.56° C | 52% | 998 hPa | 0 mm | 0 m/s | - | - |
| 1788636471 | 25.56° C | 52% | 998 hPa | 0 mm | 0 m/s | - | - |
| 1788636171 | 26.67° C | 50% | 998 hPa | 0 mm | 0.45 m/s, 319° | - | - |
| 1788635871 | 26.67° C | 47% | 998.2 hPa | 0 mm | 0.45 m/s, 301° | - | - |
| 1788635571 | 26.67° C | 48% | 998.1 hPa | 0 mm | 0 m/s | - | - |
| 1788635271 | 26.67° C | 48% | 998.1 hPa | 0 mm | 0 m/s | - | - |
| 1788634970 | 26.67° C | 48% | 998.3 hPa | 0 mm | 0.45 m/s, 293° | - | - |
| 1788634670 | 26.11° C | 49% | 997.8 hPa | 0 mm | 4.02 m/s, 314° | - | - |
| 1788634370 | 26.11° C | 51% | 997.9 hPa | 0 mm | 4.92 m/s, 338° | - | - |
| 1788634070 | 26.11° C | 51% | 998 hPa | 0 mm | 3.58 m/s, 283° | - | - |
| 1788633770 | 26.67° C | 50% | 998.1 hPa | 0 mm | 2.68 m/s, 270° | - | - |
| 1788633470 | 26.67° C | 50% | 998 hPa | 0 mm | 0.89 m/s, 294° | - | - |
| 1788633170 | 26.11° C | 50% | 998.1 hPa | 0 mm | 2.68 m/s, 338° | - | - |
| 1788632870 | 26.11° C | 52% | 998 hPa | 0 mm | 0.45 m/s, 275° | - | - |
* Rain latest hour (hover to see other rain measurements)
** Current wind speed in m/s (hover to see current wind gust speed)